Station 45004 (LLNR 16850) - EAST SUPERIOR -70 NM NE Marquette, MI Image indicating link to RSS feed of recent meteorological observations for station 45004


Conditions at 45004 as of
(6:30 pm EDT)
2230 GMT on 06/13/2024:
     

Click on the graph icon in the table below to see a time series plot of the last five days of that observation.

5-day plot - Wind Direction Wind Direction (WDIR):WNW ( 300 deg true )
5-day plot - Wind Speed Wind Speed (WSPD):6.0 m/s
5-day plot - Wind Gust Wind Gust (GST):7.0 m/s
5-day plot - Atmospheric Pressure Atmospheric Pressure (PRES):1007.8 mb
5-day plot - Air Temperature Air Temperature (ATMP): 8.5 °C
5-day plot - Water Temperature Water Temperature (WTMP): 3.9 °C
5-day plot - Dew Point Dew Point (DEWP): 7.2 °C
5-day plot - Wind Chill Wind Chill (CHILL): 5.3 °C
5-day plot - Wind Speed at 10 Meters Wind Speed at 10 meters (WSPD10M): 6 m/s
5-day plot - Wind Speed at 20 Meters Wind Speed at 20 meters (WSPD20M): 6 m/s
5-day plot -  Wind Speed, Wind Gust and Atmospheric Pressure Combined plot of Wind Speed, Gust, and Air Pressure
Supplemental Measurements
Highest 1-minute Wind Speed
Time (EDT)5-day plot - 1-Minute Wind Speed WSPD 5-day plot - 1-Minute Wind Direction WDIR
6:27 pm 6 m/s-
Previous observations
TIME
(EDT)
5-day plot - Wind Direction
WDIR
 
5-day plot - Wind Speed
WSPD
m/s
5-day plot - Wind Gust
GST
m/s
5-day plot - Wave Height
WVHT
m
5-day plot - Dominant Wave Period
DPD
sec
5-day plot - Average Wave Period
APD
sec
5-day plot - Mean Wave Direction
MWD
 
5-day plot - Atmospheric Pressure
PRES
mb
5-day plot - Pressure Tendency
PTDY
mb
5-day plot - Air Temperature
ATMP
°C
5-day plot - Water Temperature
WTMP
°C
5-day plot - Dew Point
DEWP
°C
5-day plot - Salinity
SAL
psu
5-day plot - Visibility
VIS
km
5-day plot - Tide (above MLLW)
TIDE
m
2024-06-13 06:20 pm W 4.0 5.0 0.5 33.0 W1007.7- 7.2 3.9 6.9---
2024-06-13 06:10 pm W 3.0 4.0 0.5-3.0 W1007.6- 6.4 3.9 6.3---
2024-06-13 06:00 pm W 3.0 4.0----1007.8 +1.8 6.0 3.9 5.9---
2024-06-13 05:50 pm W 4.0 5.0 0.5 32.9WNW--- 3.9----
2024-06-13 05:40 pm W 6.0 8.0----1008.1- 6.4 3.9 6.3---
2024-06-13 05:30 pm W 8.0 10.0----1008.2- 6.4 3.9 6.3---
2024-06-13 05:20 pm W 9.0 11.0 0.4 32.9WNW1008.3- 6.2 3.9 6.1---
2024-06-13 05:10 pm W 7.0 10.0----1008.2- 5.8 3.9 5.7---
2024-06-13 05:00 pm W 7.0 8.0----1007.7 +2.7 6.0 3.9 5.9---
2024-06-13 04:50 pmWNW 6.0 7.0 0.4 32.9WNW1007.8- 5.7 4.0 5.6---
2024-06-13 04:40 pmWNW 5.0 6.0 0.4-2.9WNW1007.7- 5.4 3.9 5.3---
2024-06-13 04:30 pmWNW 5.0 6.0----1007.3- 5.4 3.9 5.3---
2024-06-13 04:20 pmWNW 5.0 6.0 0.5 32.8WNW1007.4- 5.3 3.9 5.2---
2024-06-13 04:10 pmWNW 6.0 8.0 0.5-2.8WNW1007.3- 5.4 4.0 5.3---
2024-06-13 04:00 pmWNW 8.0 9.0----1007.4 +2.6 5.5 3.9 5.4---
2024-06-13 03:50 pmWNW 8.0 11.0 0.3 32.7WNW1007.4- 5.7 3.9 5.6---
2024-06-13 03:40 pmWNW 7.0 10.0----1007.3- 5.6 3.9 5.5---
2024-06-13 03:30 pmWNW 6.0 8.0----1006.8- 5.4 4.0 5.3---
2024-06-13 03:20 pmWNW 6.0 7.0 0.3 32.7 W--- 4.0----
2024-06-13 03:10 pmWNW 6.0 8.0----1006.4- 5.1 4.0 5.0---
2024-06-13 03:00 pmWNW 6.0 6.0----1006.1 +1.0 5.2 4.0 5.1---
2024-06-13 02:50 pmWNW 5.0 6.0 0.3 32.7 W1005.8- 5.3 3.9 5.2---
2024-06-13 02:40 pmWNW 6.0 7.0----1005.8- 5.4 3.9 5.3---
2024-06-13 02:30 pmWNW 5.0 6.0----1005.7- 5.5 3.9 5.4---
2024-06-13 02:20 pmWNW 6.0 7.0 0.3 22.7 E--- 3.9----
2024-06-13 02:10 pmWNW 5.0 7.0----1005.4- 5.4 3.9 5.3---
2024-06-13 02:00 pmWNW 4.0 5.0----1004.9 +0.6 5.4 3.9 5.3---
2024-06-13 01:50 pmWNW 4.0 5.0 0.3 32.8WSW1005.0- 5.4 3.9 5.3---
2024-06-13 01:40 pmWNW 4.0 5.0----1005.0- 5.5 3.9 5.4---
2024-06-13 01:30 pmWNW 4.0 5.0----1005.1- 5.4 3.9 5.3---
2024-06-13 01:20 pmWNW 5.0 6.0 0.3 32.7 SW1005.1- 5.6 3.9 5.5---
2024-06-13 01:10 pm NW 5.0 6.0 0.3-2.7 SW1005.1- 5.2 3.9 5.1---
2024-06-13 01:00 pm NW 4.0 5.0----1004.7 +0.5 5.2 3.9 5.1---
2024-06-13 12:50 pmWNW 4.0 4.0 0.3 22.7 NE1004.9- 5.4 3.8 5.3---
2024-06-13 12:40 pm W 5.0 7.0----1005.5- 5.6 3.9 5.5---
2024-06-13 12:30 pm W 6.0 7.0----1005.7- 5.4 3.9 5.3---
2024-06-13 12:20 pm W 5.0 6.0 0.3 32.9 SW1005.3- 5.2 3.9 5.1---
2024-06-13 12:10 pm W 5.0 6.0 0.3-2.9 SW1005.0- 5.2 3.9 5.1---
2024-06-13 12:00 pm W 5.0 6.0----1005.0 +1.4 5.1 3.9 5.0---
2024-06-13 11:50 am W 4.0 5.0 0.3 32.9 SW1004.7- 5.2 3.9 5.1---
2024-06-13 11:40 amWSW 3.0 4.0 0.3-2.9 SW1004.5- 5.1 3.8 5.0---
2024-06-13 11:30 amWSW 4.0 4.0----1004.7- 5.1 3.8 5.0---
2024-06-13 11:20 amWSW 4.0 4.0 0.3 33.0 SW1004.7- 5.2 3.9 5.1---
2024-06-13 11:10 am W 4.0 4.0 0.3-3.0 SW1004.5- 5.5 3.8 5.4---
2024-06-13 11:00 am W 4.0 4.0----1004.3 +0.4 5.5 3.8 5.4---
2024-06-13 10:50 am W 4.0 5.0 0.3 43.1 SW1004.2- 5.7 3.9 5.6---
2024-06-13 10:40 am W 5.0 6.0 0.3-3.1 SW1004.4- 5.7 3.9 5.6---
2024-06-13 10:30 am W 5.0 6.0----1004.4- 6.1 3.8 6.0---
2024-06-13 10:20 am W 5.0 6.0 0.3 43.2 SW1004.4- 6.3 3.8 6.2---
2024-06-13 10:10 amWSW 5.0 5.0 0.3-3.2 SW1004.2- 5.8 3.8 5.7---
2024-06-13 10:00 am SW 4.0 5.0----1004.2 +0.6 6.1 3.8 6.0---
2024-06-13 09:50 am SW 4.0 5.0 0.3 43.4 SW1003.9- 6.0 3.8 5.9---
2024-06-13 09:40 am SW 4.0 5.0 0.3-3.4 SW1003.9- 6.1 3.8 6.0---
2024-06-13 09:30 amSSW 4.0 5.0----1003.7- 6.2 3.8 6.1---
2024-06-13 09:20 amSSW 4.0 4.0 0.4 43.3 SW1003.5- 5.9 3.8 5.8---
2024-06-13 09:10 amSSW 3.0 4.0 0.4-3.3 SW1003.7- 5.8 3.8 5.7---
2024-06-13 09:00 amSSW 3.0 4.0----1003.7 +0.4 6.0 3.8 5.9---
2024-06-13 08:50 amSSW 4.0 4.0 0.4 43.3 SW1003.9- 6.0 3.8 5.9---
2024-06-13 08:40 amSSW 4.0 5.0----1004.0- 6.1 3.8 6.0---
2024-06-13 08:30 amSSW 3.0 4.0----1004.0- 5.7 3.8 5.6---
2024-06-13 08:20 am S 4.0 5.0 0.4 43.4 SW1004.0- 5.7 3.8 5.6---
2024-06-13 08:10 am S 4.0 4.0----1003.8- 6.0 3.8 5.9---
2024-06-13 08:00 am S 4.0 5.0----1003.8 +0.5 6.0 3.8 5.9---
2024-06-13 07:50 am S 5.0 5.0 0.3 33.3SSW1003.9- 6.1 3.8 6.0---
2024-06-13 07:40 am S 4.0 5.0----1003.9- 6.0 3.8 5.9---
2024-06-13 07:30 am S 4.0 5.0----1003.9- 6.1 3.8 6.0---
2024-06-13 07:20 am S 4.0 5.0 0.3 43.3SSW1003.8- 5.9 3.8 5.8---
2024-06-13 07:10 am S 4.0 5.0 0.3-3.3SSW1003.7- 5.7 3.8 5.6---
2024-06-13 07:00 am S 4.0 5.0----1003.7 +0.0 5.3 3.8 5.2---
2024-06-13 06:50 am S 3.0 3.0 0.4 43.2SSW1003.5- 5.5 3.8 5.4---
2024-06-13 06:40 am S 2.0 3.0 0.4-3.2SSW1003.4- 5.8 3.8 5.7---
2024-06-13 06:30 am S 2.0 3.0----1003.4- 5.8 3.8 5.7---
2024-06-13 06:20 amSSW 2.0 3.0 0.4 43.3SSW1003.4- 6.2 3.8 6.0---
2024-06-13 06:10 am S 2.0 2.0 0.4-3.3SSW1003.4- 6.4 3.8 6.2---
2024-06-13 06:00 am S 2.0 3.0----1003.2 -0.7 6.2 3.8 6.0---
2024-06-13 05:50 amSSW 2.0 2.0 0.4 43.4SSW1003.3- 6.2 3.8 6.0---
2024-06-13 05:40 amSSW 2.0 2.0----1003.4- 5.9 3.8 5.8---
2024-06-13 05:30 am S 3.0 3.0----1003.5- 5.9 3.8 5.6---
2024-06-13 05:20 amSSW 3.0 4.0 0.4 43.4SSW1003.4- 6.3 3.8 6.0---
2024-06-13 05:10 amSSW 3.0 3.0 0.4-3.4SSW1003.3- 6.3 3.8 6.0---
2024-06-13 05:00 amSSW 2.0 3.0----1003.3 -0.9 6.2 3.8 5.7---
2024-06-13 04:50 amWSW 2.0 3.0 0.4 43.3SSW1003.6- 6.3 3.8 5.9---
2024-06-13 04:40 amWSW 2.0 3.0----1003.5- 6.3 3.8 5.8---
2024-06-13 04:30 am SW 2.0 3.0----1003.5- 6.7 3.8 6.2---
2024-06-13 04:20 amSSW 3.0 4.0 0.5 43.4SSW1003.3- 6.9 3.8 6.4---
2024-06-13 04:10 am SW 3.0 4.0 0.5-3.4SSW1003.3- 7.0 3.8 6.4---
2024-06-13 04:00 amWSW 3.0 4.0----1003.5 -0.7 7.2 3.8 6.7---
2024-06-13 03:50 amWSW 3.0 4.0 0.4 33.0 SW1003.5- 6.4 3.8 6.2---
2024-06-13 03:40 amWSW 3.0 3.0----1003.6- 6.0 3.8 5.9---
2024-06-13 03:30 amWSW 3.0 3.0----1003.9- 6.0 3.8 5.9---
2024-06-13 03:20 am W 3.0 4.0 0.3 32.8 SW1003.9- 6.4 3.8 6.2---
2024-06-13 03:10 am W 3.0 4.0----1003.8- 7.1 3.8 6.7---
2024-06-13 03:00 am W 4.0 4.0----1004.0 +0.0 8.4 3.8 7.7---
2024-06-13 02:50 amWSW 4.0 6.0 0.3 22.6NNE1004.2- 8.1 3.8 7.7---
2024-06-13 02:40 amWSW 4.0 4.0 0.3-2.6NNE1004.2- 8.0- 7.6---
2024-06-13 02:30 am SW 4.0 6.0----1004.3- 7.9 3.8 7.5---
2024-06-13 02:20 am SW 5.0 6.0 0.3 22.5 NE1004.3- 7.5 3.8 7.0---
2024-06-13 02:10 am SW 5.0 6.0 0.3-2.5 NE1004.3- 7.9 3.8 7.1---
2024-06-13 02:00 am SW 6.0 7.0----1004.2 +0.6 8.7- 7.8---
2024-06-13 01:50 am SW 6.0 8.0 0.2-2.6-1004.2- 9.1 3.8 7.9---
2024-06-13 01:40 am SW 7.0 8.0----1004.4- 9.2 3.8 7.9---
2024-06-13 01:30 am SW 7.0 9.0----1004.3- 9.6 3.8 8.1---
2024-06-13 01:20 am SW 8.0 9.0 0.2-2.6-1004.5- 9.2 3.8 7.9---
2024-06-13 01:10 am SW 6.0 7.0 0.2-2.6-1004.5- 9.3 3.8 7.7---
2024-06-13 01:00 am SW 5.0 7.0----1004.2 -0.6 8.5 3.8 7.3---
2024-06-13 12:50 amSSW 4.0 4.0 0.2-2.6-1004.3- 8.4- 7.4---
2024-06-13 12:40 amSSW 5.0 6.0 0.2-2.6-1004.3- 8.1 3.8 7.1---
2024-06-13 12:30 am S 5.0 7.0----1004.3- 8.4 3.8 7.8---
2024-06-13 12:20 am S 4.0 8.0 0.2-2.6-1004.5- 6.8 3.8 6.7---
2024-06-13 12:10 am SE 4.0 5.0 0.2-2.6-1004.3- 6.2 3.8 6.0---
2024-06-13 12:00 am SE 4.0 5.0----1003.9 -0.9 6.1 3.8 5.9---
2024-06-12 11:50 pmESE 4.0 4.0 0.2-2.6---- 3.8----
2024-06-12 11:40 pm E 4.0 4.0----1004.4- 6.1 3.8 6.0---
2024-06-12 11:30 pm E 4.0 5.0----1004.4- 6.0 3.8 5.9---
2024-06-12 11:20 pm E 4.0 5.0 0.2-2.6-1004.2- 6.0 3.8 5.9---
2024-06-12 11:10 pm E 5.0 6.0 0.2-2.6-1004.0- 6.1 3.8 6.0---
2024-06-12 11:00 pm E 5.0 6.0----1003.7 -1.4 6.1 3.8 6.0---
2024-06-12 10:50 pmENE 5.0 6.0 0.2-2.6-1003.9- 5.9 3.8 5.7---
2024-06-12 10:40 pm E 5.0 5.0----1004.2- 6.5 3.8 6.3---
2024-06-12 10:30 pmENE 4.0 6.0----1004.3- 6.9 3.8 6.5---
2024-06-12 10:20 pm E 5.0 6.0 0.3 32.7 SE1004.6- 7.8 3.8 7.2---
2024-06-12 10:10 pm E 6.0 7.0 0.3-2.7 SE1004.7- 8.5 3.8 7.9---
2024-06-12 10:00 pm E 5.0 6.0----1004.8 -1.4 7.6 3.8 7.4---
2024-06-12 09:50 pm E 3.0 4.0 0.3 32.8ESE1004.9- 7.4 3.8 6.9---
2024-06-12 09:40 pm E 3.0 4.0 0.3-2.8ESE1005.1- 7.8 3.8 7.2---
2024-06-12 09:30 pm E 4.0 5.0----1004.8- 8.1 3.8 7.7---
2024-06-12 09:20 pmENE 3.0 4.0 0.3 22.7 NW1005.1- 7.8 3.8 7.0---
2024-06-12 09:10 pmESE 5.0 7.0 0.3-2.7 NW1005.2- 8.8 3.8 8.1---
2024-06-12 09:00 pmESE 6.0 7.0----1004.8 -2.1 8.0 3.8 7.7---
2024-06-12 08:50 pm E 4.0 5.0 0.3 32.7ESE1004.9- 6.8 3.8 6.5---
2024-06-12 08:40 pmNNE 4.0 5.0 0.3-2.7ESE1005.3- 7.0 3.8 6.5---
2024-06-12 08:30 pm E 4.0 6.0----1004.9- 7.4 3.8 7.0---
2024-06-12 08:20 pm SE 6.0 7.0 0.3 32.8SSE1004.8- 6.9- 6.6---
2024-06-12 08:10 pm SE 6.0 7.0 0.3-2.8SSE1004.7- 6.5 3.8 6.3---
2024-06-12 08:00 pm SE 6.0 7.0----1005.1 -3.7 6.2 3.8 6.1---
2024-06-12 07:50 pm SE 5.0 6.0 0.2-2.9-1005.2- 6.1 3.8 5.9---
2024-06-12 07:40 pmESE 5.0 6.0----1005.4- 6.4 3.8 6.2---
2024-06-12 07:30 pmESE 5.0 7.0----1005.5- 6.5 3.8 6.3---
2024-06-12 07:20 pm SE 5.0 6.0 0.2-2.9-1005.6- 6.4 3.8 6.3---
2024-06-12 07:10 pm SE 5.0 6.0 0.2-2.9-1006.0- 6.3 3.9 6.2---
2024-06-12 07:00 pm SE 4.0 5.0----1006.1 -2.5 6.4 3.9 6.3---
2024-06-12 06:50 pm SE 4.0 5.0 0.2-2.9-1006.4- 6.5 3.9 6.4---
2024-06-12 06:40 pmESE 4.0 5.0----1006.4- 6.2 3.8 6.1---
2024-06-12 06:30 pm E 3.0 4.0----1006.5- 6.5 3.8 6.3---
2024-06-12 06:20 pm E 3.0 4.0 0.3 33.0SSE1006.5- 7.2 3.8 7.0---
2024-06-12 06:10 pmENE 3.0 4.0 0.3-3.0SSE1006.6- 7.1 3.9 7.0---
2024-06-12 06:00 pmENE 3.0 4.0----1006.9 -1.0 7.2 3.9 6.8---
2024-06-12 05:50 pmENE 3.0 4.0 0.3 32.9SSE1006.9- 7.2 3.9 7.0---

Detailed Wave Summary
for 45004 as of (6:10 pm EDT)
2210 GMT on 06/13/2024:

These wave data are displayed in rounded times.

     

Click on the graph icon in the table below to see a time series plot of the last five days of that observation.

5-day plot - Significant Wave Height Significant Wave Height (WVHT): 0.5 m
5-day plot - Swell Height Swell Height (SwH): 0.1 m
5-day plot - Swell Period Swell Period (SwP): 8.3 sec
5-day plot - Swell Direction Swell Direction (SwD): W
5-day plot - Wind Wave Height Wind Wave Height (WWH): 0.5 m
5-day plot - Wind Wave Period Wind Wave Period (WWP): 3.2 sec
5-day plot - Wind Wave Direction Wind Wave Direction (WWD): W
5-day plot - Average Wave Period Average Wave Period (APD): 3.0 sec
Previous observations
TIME
(EDT)
5-day plot - Wave Height
WVHT
m
5-day plot - Swell Height
SwH
m
5-day plot - Swell Period
SwP
sec
5-day plot - Swell Direction
SwD
 
5-day plot - Wind Wave Height
WWH
m
5-day plot - Wind Wave Period
WWP
sec
5-day plot - Wind Wave Direction
WWD
 
5-day plot - Wave Steepness
STEEPNESS
 
5-day plot - Average Wave Period
APD
sec
2024-06-13 05:40 pm 0.5 0.0 6.2SSE 0.5 2.9 WNW N/A 2.9
2024-06-13 05:10 pm 0.4 0.0 5.9 E 0.4 3.1 WNW N/A 2.9
2024-06-13 04:40 pm 0.4 0.0 6.7 N 0.4 3.2 WNW N/A 2.9
2024-06-13 04:10 pm 0.5 0.0 11.4NNE 0.5 3.0 WNW N/A 2.8
2024-06-13 03:40 pm 0.3 0.0 8.3 NW 0.3 2.7 WNW N/A 2.7
2024-06-13 03:10 pm 0.3 0.0 7.7WNW 0.3 2.7 W N/A 2.7
2024-06-13 02:40 pm 0.3 0.0 6.2 NW 0.3 2.9 W N/A 2.7
2024-06-13 02:10 pm 0.3 0.0 7.7WSW 0.3 2.5 E N/A 2.7
2024-06-13 01:40 pm 0.3 0.1 4.5WNW 0.3 2.6 WSW N/A 2.8
2024-06-13 01:10 pm 0.3 0.1 7.1 NE 0.3 3.0 SW N/A 2.7
2024-06-13 12:40 pm 0.3 0.1 4.2 NW 0.3 2.4 NE N/A 2.7
2024-06-13 12:10 pm 0.3 0.1 6.7 W 0.3 3.3 SW N/A 2.9
2024-06-13 11:40 am 0.3 0.1 4.8 W 0.3 3.3 SW N/A 2.9
2024-06-13 11:10 am 0.3 0.1 4.8WNW 0.3 3.4 SW N/A 3.0
2024-06-13 10:40 am 0.3 0.0 5.6WNW 0.3 3.7 SW N/A 3.1
2024-06-13 10:10 am 0.3 0.1 5.0 NE 0.3 3.6 SW N/A 3.2
2024-06-13 09:40 am 0.3 0.1 4.2 SW 0.3 3.7 SW N/A 3.4
2024-06-13 09:10 am 0.4 0.1 5.3SSW 0.3 3.8 SW N/A 3.3
2024-06-13 08:40 am 0.4 0.2 4.5 SW 0.4 3.8 SW N/A 3.3
2024-06-13 08:10 am 0.4 0.2 4.2 SW 0.4 3.7 SSW N/A 3.4
2024-06-13 07:40 am 0.3 0.1 6.2 S 0.3 3.4 SSW N/A 3.3
2024-06-13 07:10 am 0.3 0.1 10.0SSW 0.3 3.7 SSW N/A 3.3
2024-06-13 06:40 am 0.4 0.1 4.2 S 0.3 3.7 SSW N/A 3.2
2024-06-13 06:10 am 0.4 0.1 4.2 S 0.4 3.8 SSW N/A 3.3
2024-06-13 05:40 am 0.4 0.2 11.4WNW 0.4 3.8 SSW N/A 3.4
2024-06-13 05:10 am 0.4 0.2 7.7ENE 0.4 3.6 SSW N/A 3.4
2024-06-13 04:40 am 0.4 0.2 5.0SSW 0.4 3.8 SSW N/A 3.3
2024-06-13 04:10 am 0.5 0.2 4.5 S 0.4 4.0 SSW N/A 3.4
2024-06-13 03:40 am 0.4 0.1 7.7ENE 0.3 3.2 SW N/A 3.0
2024-06-13 03:10 am 0.3 0.1 4.3 NW 0.3 2.9 SW N/A 2.8
2024-06-13 02:40 am 0.3 0.1 4.3 NW 0.3 2.5 NNE N/A 2.6
2024-06-13 02:10 am 0.3 0.0 5.3WSW 0.3 2.4 NE N/A 2.5
2024-06-13 01:40 am 0.2------ N/A 2.6
2024-06-13 01:10 am 0.2------ N/A 2.6
2024-06-13 12:40 am 0.2------ N/A 2.6
2024-06-13 12:10 am 0.2------ N/A 2.6
2024-06-12 11:40 pm 0.2------ N/A 2.6
2024-06-12 11:10 pm 0.2------ N/A 2.6
2024-06-12 10:40 pm 0.2------ N/A 2.6
2024-06-12 10:10 pm 0.3 0.0 6.7 N 0.3 2.9 SE N/A 2.7
2024-06-12 09:40 pm 0.3 0.1 8.3 E 0.3 2.7 ESE N/A 2.8
2024-06-12 09:10 pm 0.3 0.0 5.0NNW 0.3 2.4 NW N/A 2.7
2024-06-12 08:40 pm 0.3 0.0 5.6WSW 0.3 3.0 ESE N/A 2.7
2024-06-12 08:10 pm 0.3 0.0 10.8ENE 0.2 2.9 SSE N/A 2.8
2024-06-12 07:40 pm 0.2------ N/A 2.9
2024-06-12 07:10 pm 0.2------ N/A 2.9
2024-06-12 06:40 pm 0.2------ N/A 2.9
2024-06-12 06:10 pm 0.3 0.1 4.2 NE 0.3 3.3 SSE N/A 3.0

Plot of wave energy versus frequency (and period)